Location: Unspecified
(0.0000°N, 0.0000°E)
Time: 05:51:46
(UTC+00:00)

N. Korean satellite - Pass Details

Date: 20 April 2021
Orbit: 450 x 501 km, 97.2° (Epoch: 16 May)

Event Time Altitude Azimuth Distance (km) Brightness Sun altitude
Rises 04:18:24 0° 38° (NE) 2,483 10.9 -24.6°
Reaches altitude 10° 04:21:01 10° 60° (ENE) 1,602 10.2 -24.0°
Maximum altitude 04:23:15 16° 101° (E) 1,254 9.4 -23.4°
Drops below altitude 10° 04:25:28 10° 142° (SE) 1,593 9.5 -22.9°
Sets 04:28:03 0° 163° (SSE) 2,462 10.2 -22.2°
